Regional Weather Roundup
Issued by NWS State College, PA

Home | Current Version | Previous Version | Graphics & Text | Print | Product List | Glossary Off
Versions: 1 2 3 4 5 6 7 8 9 10 11 12 13 14 15 16 17 18 19 20 21 22 23 24 25 26 27 28 29 30 31 32 33 34 35 36 37 38 39 40 41 42 43 44 45 46 47 48 49 50

000
ASUS41 KCTP 242103
RWRCTP

REGIONAL WEATHER ROUNDUP
NATIONAL WEATHER SERVICE STATE COLLEGE PA
500 PM EDT THU JUL 24 2014

Note: "fair" indicates few or no clouds below 12,000 feet with no
significant weather and/or obstructions to visibility.

* = STATION THAT DOES NOT REPORT PRECIPITATION /E.G. RAIN...SNOW...ETC/
    THUNDER OR FOG.

PAZ002>004-007>009-013>016-020>023-029>032-242200-
WESTERN PENNSYLVANIA

CITY           SKY/WX    TMP DP  RH WIND       PRES   REMARKS
ERIE           SUNNY     70  48  45 N8        30.05F
MEADVILLE      SUNNY     69  49  48 N9        30.06R
FRANKLIN*      PTSUNNY   70  48  46 N10G17    30.04S
NEW CASTLE       N/A     74  53  47 N10G16    30.03S
BEAVER COUNTY  MOSUNNY   73  54  49 N9        30.02F
BUTLER*        PTSUNNY   73  54  49 N8        30.02F
PITTSBURGH INT MOSUNNY   76  51  41 N10G17    30.00F
PITTSBURGH     MOSUNNY   75  52  44 N9        29.98F
INDIANA*       SUNNY     73  54  49 N6G13     30.03F
LATROBE        PTSUNNY   73  55  53 N7        29.99F
WASHINGTON CO* CLOUDY    75  54  46 N8        30.00F
$$

PAZ004>006-010>012-017>019-024>028-033>037-041-042-045-046-049>053-242200-
CENTRAL PENNSYLVANIA

CITY           SKY/WX    TMP DP  RH WIND       PRES   REMARKS
BRADFORD       MOSUNNY   69  49  48 N12G20    30.03S
DUBOIS         MOSUNNY   73  49  42 MISG      30.00S
CLEARFIELD     SUNNY     72  50  45 N7        29.99F
JOHNSTOWN      MOSUNNY   71  49  45 NW9       30.00F
ALTOONA        PTSUNNY   74  53  48 NE10      29.98F
STATE COLLEGE  MOSUNNY   73  54  49 N9        29.97F
WILLIAMSPORT   PTSUNNY   77  50  38 NW8       29.93F
SELINSGROVE    PTSUNNY   76  55  48 N6        29.93F
FT INDIANTOWN  PTSUNNY   78  53  42 N10       29.92F
CAPITAL CITY   PTSUNNY   78  52  40 N8        29.91F
HARRISBURG     PTSUNNY   79  52  38 N14       29.90F
YORK           PTSUNNY   76  54  46 N7        29.91F
$$

PAZ038>040-043-044-047-048-054-055-060>062-067>071-242200-
EASTERN PENNSYLVANIA

CITY           SKY/WX    TMP DP  RH WIND       PRES   REMARKS
SCRANTON       MOSUNNY   74  49  41 N10       29.93S
MOUNT POCONO   PTSUNNY   71  50  47 NW9       29.95R
ALLENTOWN      PTSUNNY   81  54  39 N10       29.88S
QUAKERTOWN*    MOCLDY    77  55  47 N6        29.89F
READING        MOSUNNY   80  52  37 N13G18    29.89S
LANCASTER      PTSUNNY   77  56  48 N13       29.89F
COATESVILLE    PTCLDY    77  57  50 NW6       29.90F
POTTSTOWN      PTSUNNY   77  55  46 N9        29.89S
BLUE BELL      MOSUNNY   79  57  47 CALM      29.86F
DOYLESTOWN     MOSUNNY   78  56  46 N8        29.87S
WILLOW GROVE   NOT AVBL
NORTH PHILA    MOSUNNY   82  54  37 N10       29.87F
PHILADELPHIA   MOSUNNY   83  56  39 N14G20    29.86S
$$



USA.gov is the U.S. government's official web portal to all federal, state and local government web resources and services.